EJU25J EDDF-EHAM

Flight info

Callsign EJU25J
Flight time 0h 50m
Altitude 24000
Route MARUN8M/25C MARUN Y152 ARPEG Z850 ABILU DCT NORKU
Aircraft A320/M-SDE3FGHIRWY/LB1

Departure

Time 2026-05-05 18:03
Airport Frankfurt Main Airport (EDDF)

Arrival

Time 2026-05-05 18:53
Airport Amsterdam Airport Schiphol (EHAM)
Time Latitude Longitude Altitude Speed Heading
2026-05-05 17:36 50.04466 8.56485 360 ft 0 kts 159°
2026-05-05 17:49 50.04481 8.56476 363 ft 4 kts 159°
2026-05-05 17:49 50.04506 8.56462 360 ft 4 kts 166°
2026-05-05 17:49 50.04530 8.56460 362 ft 4 kts 213°
2026-05-05 17:50 50.04537 8.56468 364 ft 3 kts 249°
2026-05-05 17:50 50.04528 8.56429 360 ft 4 kts 249°
2026-05-05 17:50 50.04518 8.56390 356 ft 4 kts 249°
2026-05-05 17:50 50.04516 8.56382 356 ft 0 kts 249°
2026-05-05 17:53 50.04509 8.56353 361 ft 7 kts 249°
2026-05-05 17:53 50.04482 8.56244 363 ft 11 kts 249°
2026-05-05 17:54 50.04458 8.56146 357 ft 7 kts 249°
2026-05-05 17:54 50.04455 8.56132 364 ft 6 kts 249°
2026-05-05 17:54 50.04454 8.56129 364 ft 6 kts 249°
2026-05-05 17:54 50.04447 8.56098 363 ft 3 kts 249°
2026-05-05 17:55 50.04444 8.56089 358 ft 3 kts 249°
2026-05-05 17:55 50.04441 8.56073 363 ft 3 kts 249°
2026-05-05 17:55 50.04427 8.56035 356 ft 3 kts 230°
2026-05-05 17:55 50.04420 8.56028 356 ft 0 kts 213°
2026-05-05 17:56 50.04400 8.56026 359 ft 5 kts 173°
2026-05-05 17:56 50.04380 8.56034 359 ft 2 kts 162°
2026-05-05 17:56 50.04373 8.56039 362 ft 1 kts 160°
2026-05-05 17:56 50.04368 8.56042 362 ft 3 kts 159°
2026-05-05 17:57 50.04338 8.56061 361 ft 6 kts 157°
2026-05-05 17:57 50.04298 8.56104 359 ft 12 kts 129°
2026-05-05 17:57 50.04250 8.56235 359 ft 14 kts 143°
2026-05-05 17:57 50.04193 8.56269 354 ft 13 kts 157°
2026-05-05 17:58 50.04144 8.56360 353 ft 11 kts 86°
2026-05-05 17:58 50.04172 8.56464 358 ft 9 kts 69°
2026-05-05 17:58 50.04190 8.56541 359 ft 9 kts 70°
2026-05-05 17:58 50.04228 8.56700 363 ft 22 kts 70°
2026-05-05 17:59 50.04296 8.56975 359 ft 31 kts 70°
2026-05-05 17:59 50.04368 8.57277 361 ft 29 kts 70°
2026-05-05 17:59 50.04435 8.57568 366 ft 28 kts 70°
2026-05-05 17:59 50.04501 8.57841 370 ft 27 kts 69°
2026-05-05 18:00 50.04567 8.58113 363 ft 27 kts 70°
2026-05-05 18:00 50.04630 8.58373 371 ft 25 kts 69°
2026-05-05 18:00 50.04651 8.58474 370 ft 0 kts 75°
2026-05-05 18:00 50.04673 8.58562 369 ft 15 kts 69°
2026-05-05 18:01 50.04700 8.58704 369 ft 12 kts 87°
2026-05-05 18:01 50.04646 8.58759 370 ft 13 kts 189°
2026-05-05 18:01 50.04569 8.58699 371 ft 12 kts 217°
2026-05-05 18:01 50.04499 8.58613 371 ft 11 kts 225°
2026-05-05 18:02 50.04468 8.58513 370 ft 15 kts 248°
2026-05-05 18:02 50.04360 8.58045 366 ft 83 kts 249°
2026-05-05 18:02 50.04079 8.56880 366 ft 143 kts 250°
2026-05-05 18:02 50.03692 8.55242 551 ft 171 kts 250°
2026-05-05 18:03 50.03285 8.53502 1289 ft 167 kts 252°
2026-05-05 18:03 50.02869 8.51821 1901 ft 173 kts 255°
2026-05-05 18:03 50.02258 8.50074 2267 ft 200 kts 224°
2026-05-05 18:03 50.00949 8.49077 2570 ft 223 kts 195°
2026-05-05 18:04 49.99420 8.48402 3193 ft 230 kts 194°
2026-05-05 18:04 49.97868 8.47755 3999 ft 231 kts 193°
2026-05-05 18:04 49.96309 8.47102 4775 ft 233 kts 193°
2026-05-05 18:04 49.94694 8.46408 5272 ft 252 kts 194°
2026-05-05 18:05 49.92947 8.45628 5842 ft 266 kts 195°
2026-05-05 18:05 49.91259 8.44408 6608 ft 273 kts 222°
2026-05-05 18:05 49.90234 8.41986 7412 ft 271 kts 258°
2026-05-05 18:05 49.90254 8.39137 8203 ft 264 kts 294°
2026-05-05 18:06 49.91231 8.36835 9021 ft 255 kts 326°
2026-05-05 18:06 49.92250 8.35867 9421 ft 259 kts 340°
2026-05-05 18:06 49.94528 8.34347 10127 ft 277 kts 341°
2026-05-05 18:06 49.96382 8.33170 10428 ft 300 kts 341°
2026-05-05 18:07 49.98397 8.31898 10658 ft 324 kts 341°
2026-05-05 18:07 50.00533 8.30529 11164 ft 336 kts 341°
2026-05-05 18:07 50.02760 8.29411 11838 ft 339 kts 351°
2026-05-05 18:07 50.05101 8.28981 12524 ft 340 kts
2026-05-05 18:08 50.07462 8.29304 13223 ft 341 kts 13°
2026-05-05 18:08 50.09739 8.30329 13875 ft 343 kts 20°
2026-05-05 18:08 50.12011 8.31531 14539 ft 346 kts 20°
2026-05-05 18:08 50.14312 8.32743 15177 ft 350 kts 20°
2026-05-05 18:09 50.16630 8.33963 15804 ft 354 kts 20°
2026-05-05 18:09 50.18976 8.35190 16416 ft 357 kts 20°
2026-05-05 18:09 50.21348 8.36430 16862 ft 361 kts 20°
2026-05-05 18:09 50.23736 8.37681 16980 ft 361 kts 20°
2026-05-05 18:10 50.26145 8.38811 17068 ft 366 kts 12°
2026-05-05 18:10 50.28710 8.38887 17627 ft 373 kts 354°
2026-05-05 18:10 50.31201 8.37642 18187 ft 383 kts 334°
2026-05-05 18:10 50.33416 8.35245 18726 ft 390 kts 326°
2026-05-05 18:11 50.35579 8.32657 19252 ft 393 kts 325°
2026-05-05 18:11 50.37755 8.30023 19756 ft 397 kts 325°
2026-05-05 18:11 50.39943 8.27359 20251 ft 400 kts 325°
2026-05-05 18:11 50.42149 8.24675 20721 ft 403 kts 325°
2026-05-05 18:12 50.44379 8.21970 21194 ft 406 kts 325°
2026-05-05 18:12 50.46618 8.19243 21658 ft 409 kts 325°
2026-05-05 18:12 50.48875 8.16492 22099 ft 412 kts 325°
2026-05-05 18:12 50.51153 8.13730 22526 ft 415 kts 325°
2026-05-05 18:13 50.53455 8.10969 22950 ft 417 kts 327°
2026-05-05 18:13 50.56000 8.08822 23348 ft 415 kts 343°
2026-05-05 18:13 50.58804 8.07899 23743 ft 412 kts 360°
2026-05-05 18:13 50.61641 8.08268 23955 ft 408 kts 16°
2026-05-05 18:14 50.64349 8.09677 24005 ft 415 kts 22°
2026-05-05 18:14 50.67067 8.11215 24162 ft 421 kts 21°
2026-05-05 18:14 50.69889 8.12809 23986 ft 440 kts 21°
2026-05-05 18:14 50.72806 8.14444 23818 ft 448 kts 21°
2026-05-05 18:15 50.75761 8.16088 23812 ft 451 kts 21°
2026-05-05 18:15 50.78722 8.17735 23811 ft 452 kts 21°
2026-05-05 18:15 50.81684 8.19382 23813 ft 452 kts 21°
2026-05-05 18:15 50.84644 8.21034 23813 ft 452 kts 21°
2026-05-05 18:16 50.87613 8.22700 23815 ft 452 kts 21°
2026-05-05 18:16 50.90573 8.24371 23815 ft 452 kts 21°
2026-05-05 18:16 50.93538 8.26046 23817 ft 452 kts 21°
2026-05-05 18:16 50.96555 8.27462 23817 ft 453 kts 12°
2026-05-05 18:17 50.99691 8.28018 23817 ft 454 kts
2026-05-05 18:17 51.02841 8.27659 23814 ft 455 kts 351°
2026-05-05 18:17 51.05909 8.26407 23814 ft 456 kts 339°
2026-05-05 18:17 51.08786 8.24319 23808 ft 455 kts 330°
2026-05-05 18:18 51.11551 8.21858 23802 ft 455 kts 329°
2026-05-05 18:18 51.14320 8.19393 23799 ft 455 kts 329°
2026-05-05 18:18 51.17085 8.16926 23807 ft 455 kts 329°
2026-05-05 18:18 51.19851 8.14452 23807 ft 456 kts 329°
2026-05-05 18:19 51.22612 8.11973 23808 ft 456 kts 329°
2026-05-05 18:19 51.25342 8.09520 23825 ft 456 kts 330°
2026-05-05 18:19 51.28109 8.07031 23822 ft 456 kts 330°
2026-05-05 18:19 51.30879 8.04547 23823 ft 456 kts 329°
2026-05-05 18:20 51.33680 8.02031 23827 ft 456 kts 329°
2026-05-05 18:20 51.36450 7.99536 23832 ft 456 kts 329°
2026-05-05 18:20 51.39210 7.97039 23831 ft 456 kts 329°
2026-05-05 18:20 51.41868 7.94394 23828 ft 454 kts 322°
2026-05-05 18:21 51.44440 7.91345 23832 ft 454 kts 322°
2026-05-05 18:21 51.46946 7.88369 23830 ft 454 kts 322°
2026-05-05 18:21 51.49518 7.85314 23828 ft 454 kts 322°
2026-05-05 18:21 51.52052 7.82298 23829 ft 454 kts 322°
2026-05-05 18:22 51.54552 7.79309 23827 ft 454 kts 322°
2026-05-05 18:22 51.57084 7.76275 23838 ft 454 kts 321°
2026-05-05 18:22 51.59644 7.73197 23845 ft 453 kts 321°
2026-05-05 18:22 51.62167 7.70162 23848 ft 453 kts 321°
2026-05-05 18:23 51.64694 7.67122 23843 ft 453 kts 321°
2026-05-05 18:23 51.67184 7.64123 23845 ft 453 kts 321°
2026-05-05 18:23 51.69699 7.60968 23842 ft 451 kts 315°
2026-05-05 18:23 51.71722 7.57154 23841 ft 447 kts 302°
2026-05-05 18:24 51.73463 7.52994 23842 ft 447 kts 301°
2026-05-05 18:24 51.75166 7.48867 23845 ft 447 kts 301°
2026-05-05 18:24 51.76880 7.44673 23849 ft 447 kts 301°
2026-05-05 18:24 51.78588 7.40475 23846 ft 447 kts 301°
2026-05-05 18:25 51.80298 7.36276 23857 ft 447 kts 301°
2026-05-05 18:25 51.81453 7.33441 23857 ft 448 kts 301°
2026-05-05 18:25 51.83722 7.27876 23870 ft 447 kts 301°
2026-05-05 18:25 51.85436 7.23675 23869 ft 447 kts 301°
2026-05-05 18:26 51.87147 7.19483 23873 ft 447 kts 301°
2026-05-05 18:26 51.88856 7.15283 23874 ft 446 kts 300°
2026-05-05 18:26 51.90559 7.11080 23872 ft 446 kts 300°
2026-05-05 18:26 51.92254 7.06890 23866 ft 446 kts 300°
2026-05-05 18:27 51.93953 7.02686 23870 ft 445 kts 300°
2026-05-05 18:27 51.95648 6.98475 23867 ft 445 kts 300°
2026-05-05 18:27 51.97340 6.94263 23865 ft 446 kts 300°
2026-05-05 18:27 51.99031 6.90055 23865 ft 445 kts 300°
2026-05-05 18:28 52.02412 6.81621 23879 ft 445 kts 300°
2026-05-05 18:28 52.04097 6.77408 23881 ft 445 kts 300°
2026-05-05 18:28 52.05777 6.73197 23881 ft 444 kts 300°
2026-05-05 18:29 52.07452 6.68991 23757 ft 441 kts 300°
2026-05-05 18:29 52.09108 6.64831 23518 ft 436 kts 300°
2026-05-05 18:29 52.10748 6.60713 22847 ft 432 kts 300°
2026-05-05 18:29 52.12372 6.56633 22221 ft 427 kts 300°
2026-05-05 18:30 52.13973 6.52597 21607 ft 422 kts 301°
2026-05-05 18:30 52.15553 6.48608 21037 ft 417 kts 301°
2026-05-05 18:30 52.17113 6.44653 20474 ft 412 kts 301°
2026-05-05 18:30 52.18645 6.40756 19947 ft 407 kts 301°
2026-05-05 18:31 52.20170 6.36881 19422 ft 403 kts 301°
2026-05-05 18:31 52.21675 6.33049 18914 ft 399 kts 301°
2026-05-05 18:31 52.23165 6.29249 18423 ft 395 kts 301°
2026-05-05 18:31 52.24636 6.25488 17895 ft 392 kts 302°
2026-05-05 18:32 52.26094 6.21762 17384 ft 387 kts 302°
2026-05-05 18:32 52.27533 6.18080 16902 ft 383 kts 302°
2026-05-05 18:32 52.28959 6.14425 16393 ft 380 kts 302°
2026-05-05 18:32 52.30372 6.10794 15900 ft 377 kts 302°
2026-05-05 18:33 52.31772 6.07193 15372 ft 375 kts 302°
2026-05-05 18:33 52.33166 6.03602 14847 ft 374 kts 303°
2026-05-05 18:33 52.34553 6.00027 14299 ft 373 kts 303°
2026-05-05 18:33 52.35942 5.96445 13768 ft 371 kts 303°
2026-05-05 18:34 52.37321 5.92882 13168 ft 370 kts 302°
2026-05-05 18:34 52.38693 5.89331 12618 ft 367 kts 302°
2026-05-05 18:34 52.40050 5.85811 12057 ft 364 kts 302°
2026-05-05 18:34 52.41392 5.82325 11496 ft 361 kts 302°
2026-05-05 18:35 52.42723 5.78859 10928 ft 358 kts 302°
2026-05-05 18:35 52.44034 5.75444 10619 ft 348 kts 302°
2026-05-05 18:35 52.45295 5.72166 10494 ft 333 kts 302°
2026-05-05 18:35 52.46503 5.69019 10376 ft 319 kts 301°
2026-05-05 18:36 52.47660 5.65996 10250 ft 307 kts 301°
2026-05-05 18:36 52.48775 5.63075 10127 ft 296 kts 301°
2026-05-05 18:36 52.49695 5.60118 9930 ft 288 kts 287°
2026-05-05 18:36 52.50013 5.56920 9870 ft 285 kts 269°
2026-05-05 18:37 52.49729 5.53711 9801 ft 285 kts 252°
2026-05-05 18:37 52.49220 5.51728 9732 ft 285 kts 241°
2026-05-05 18:37 52.48200 5.48935 9633 ft 286 kts 239°
2026-05-05 18:37 52.47169 5.46156 9309 ft 284 kts 239°
2026-05-05 18:38 52.46133 5.43408 8907 ft 283 kts 239°
2026-05-05 18:38 52.45091 5.40674 8525 ft 282 kts 239°
2026-05-05 18:38 52.44051 5.37950 8126 ft 280 kts 239°
2026-05-05 18:38 52.43019 5.35254 7737 ft 279 kts 239°
2026-05-05 18:39 52.41992 5.32560 7356 ft 278 kts 239°
2026-05-05 18:39 52.40964 5.29890 6963 ft 276 kts 239°
2026-05-05 18:39 52.39938 5.27236 6577 ft 276 kts 239°
2026-05-05 18:39 52.38906 5.24594 6179 ft 274 kts 238°
2026-05-05 18:40 52.37885 5.21963 5727 ft 275 kts 239°
2026-05-05 18:40 52.36857 5.19329 5300 ft 274 kts 239°
2026-05-05 18:40 52.35826 5.16690 4813 ft 276 kts 239°
2026-05-05 18:40 52.34782 5.14048 4460 ft 274 kts 239°
2026-05-05 18:41 52.33719 5.11427 4404 ft 280 kts 238°
2026-05-05 18:41 52.32635 5.08776 4407 ft 278 kts 238°
2026-05-05 18:41 52.31559 5.06140 4422 ft 279 kts 237°
2026-05-05 18:41 52.30495 5.03498 4423 ft 277 kts 238°
2026-05-05 18:42 52.29421 5.00851 4429 ft 281 kts 238°
2026-05-05 18:42 52.28339 4.98197 4422 ft 281 kts 238°
2026-05-05 18:42 52.27247 4.95552 4407 ft 281 kts 237°
2026-05-05 18:42 52.26165 4.92914 4414 ft 281 kts 238°
2026-05-05 18:43 52.25084 4.90281 4420 ft 272 kts 238°
2026-05-05 18:43 52.24060 4.87801 4422 ft 256 kts 238°
2026-05-05 18:43 52.23069 4.85430 4411 ft 251 kts 238°
2026-05-05 18:43 52.22077 4.83078 4421 ft 253 kts 238°
2026-05-05 18:44 52.21080 4.80710 4411 ft 252 kts 238°
2026-05-05 18:44 52.20100 4.78365 4226 ft 250 kts 237°
2026-05-05 18:44 52.19125 4.76029 3896 ft 248 kts 238°
2026-05-05 18:44 52.18162 4.73697 3563 ft 247 kts 237°
2026-05-05 18:45 52.17213 4.71360 3226 ft 247 kts 238°
2026-05-05 18:45 52.16273 4.69051 3022 ft 244 kts 237°
2026-05-05 18:45 52.15334 4.66731 2986 ft 247 kts 238°
2026-05-05 18:45 52.14400 4.64421 2989 ft 247 kts 238°
2026-05-05 18:46 52.13442 4.62054 2991 ft 247 kts 238°
2026-05-05 18:46 52.12596 4.59683 2982 ft 241 kts 253°
2026-05-05 18:46 52.12484 4.57094 2984 ft 217 kts 289°
2026-05-05 18:46 52.13171 4.55094 2988 ft 195 kts 317°
2026-05-05 18:47 52.14080 4.53572 2907 ft 186 kts 322°
2026-05-05 18:47 52.15017 4.52130 2720 ft 184 kts 322°
2026-05-05 18:47 52.15962 4.50690 2524 ft 183 kts 324°
2026-05-05 18:47 52.17015 4.49702 2324 ft 173 kts 349°
2026-05-05 18:48 52.18183 4.49510 2130 ft 167 kts 10°
2026-05-05 18:48 52.19278 4.50042 2049 ft 164 kts 28°
2026-05-05 18:48 52.20170 4.51201 1995 ft 164 kts 49°
2026-05-05 18:48 52.20803 4.52745 1999 ft 164 kts 55°
2026-05-05 18:49 52.21413 4.54313 1991 ft 165 kts 54°
2026-05-05 18:49 52.22025 4.55893 1989 ft 164 kts 55°
2026-05-05 18:49 52.22636 4.57469 1990 ft 164 kts 55°
2026-05-05 18:49 52.23247 4.59048 1985 ft 165 kts 55°
2026-05-05 18:50 52.23850 4.60608 1854 ft 156 kts 56°
2026-05-05 18:50 52.24405 4.62045 1713 ft 146 kts 54°
2026-05-05 18:50 52.24946 4.63440 1451 ft 144 kts 54°
2026-05-05 18:50 52.25477 4.64813 1180 ft 138 kts 56°
2026-05-05 18:51 52.25962 4.66100 1072 ft 130 kts 54°
2026-05-05 18:51 52.26443 4.67342 921 ft 128 kts 53°
2026-05-05 18:51 52.26925 4.68569 748 ft 131 kts 54°
2026-05-05 18:51 52.27405 4.69822 570 ft 128 kts 54°
2026-05-05 18:52 52.27893 4.71068 421 ft 130 kts 55°
2026-05-05 18:52 52.28371 4.72312 259 ft 126 kts 54°
2026-05-05 18:52 52.28846 4.73561 61 ft 129 kts 54°
2026-05-05 18:52 52.29298 4.74730 2 ft 109 kts 56°
2026-05-05 18:53 52.29617 4.75553 -1 ft 52 kts 56°
2026-05-05 18:53 52.29840 4.75855 -2 ft 32 kts 26°
2026-05-05 18:53 52.29992 4.75991 -1 ft 23 kts 45°
2026-05-05 18:53 52.30078 4.76206 -1 ft 24 kts 57°
2026-05-05 18:54 52.30167 4.76435 -1 ft 24 kts 56°
2026-05-05 18:54 52.30257 4.76671 -1 ft 24 kts 57°
2026-05-05 18:54 52.30346 4.76907 -1 ft 24 kts 58°
2026-05-05 18:54 52.30441 4.77154 -1 ft 28 kts 58°
2026-05-05 18:55 52.30548 4.77434 -1 ft 26 kts 58°
2026-05-05 18:55 52.30684 4.77589 -1 ft 27 kts
2026-05-05 18:55 52.30889 4.77609 -1 ft 31 kts
2026-05-05 18:55 52.31101 4.77628 -1 ft 30 kts
2026-05-05 18:56 52.31307 4.77647 -1 ft 29 kts
2026-05-05 18:56 52.31494 4.77585 -1 ft 28 kts 319°
2026-05-05 18:56 52.31574 4.77307 -1 ft 29 kts 269°
2026-05-05 18:56 52.31563 4.76951 -1 ft 33 kts 267°
2026-05-05 18:57 52.31541 4.76577 -1 ft 33 kts 247°
2026-05-05 18:57 52.31452 4.76245 -1 ft 34 kts 268°
2026-05-05 18:57 52.31441 4.75846 -1 ft 36 kts 268°
2026-05-05 18:57 52.31425 4.75507 -1 ft 21 kts 249°
2026-05-05 18:58 52.31298 4.75485 -1 ft 22 kts 176°
2026-05-05 18:58 52.31143 4.75504 -1 ft 20 kts 166°
2026-05-05 18:58 52.31070 4.75568 -1 ft 1 kts 149°
2026-05-05 18:58 52.31066 4.75572 -1 ft 0 kts 148°